Date String (YYYY-MM-DD hh:mm:ss) UTC,Instrument flags,Ambient pressure (hPa),Sample flow (lpm),Bypass flow (lpm),Sample temperature (°C),Ambient temperature (°C),ASC tube jacket temperature (°C),LED temperature (°C),Box temperature (°C),Sample RH (%),Span deviation,Mass concentration (μg/m³),Mass concentration (μg/m³),Mass concentration (μg/m³)
DateTimeUTC,F1_M11,P_M11,Q1_M11,Q2_M11,T1_M11,T2_M11,T3_M11,T4_M11,T5_M11,U1_M11,ZSPAN_M11,X0_M11,X2_M11,X1_M11
2023-01-20 23:00:00,,0826.0,5.00,0.00,23.6,22.3,00.0,32.4,25.5,08.1,0000.0,0009.04,0005.77,0005.42
2023-01-20 23:01:00,,0825.9,5.00,0.00,23.6,22.3,00.0,32.4,25.5,08.1,0000.0,0009.08,0005.77,0005.39
2023-01-20 23:02:00,,0826.0,5.00,0.00,23.6,22.3,00.0,32.4,25.5,08.1,0000.0,0008.96,0005.69,0005.31
2023-01-20 23:03:00,,0825.9,5.00,0.00,23.6,22.3,00.0,32.4,25.5,08.0,0000.0,0008.76,0005.58,0005.22
2023-01-20 23:04:00,,0826.0,5.01,0.00,23.6,22.2,00.0,32.4,25.5,08.0,0000.0,0008.63,0005.48,0005.13
2023-01-20 23:05:00,,0826.0,5.01,0.00,23.6,22.3,00.0,32.4,25.5,08.0,0000.0,0009.04,0005.42,0005.05
2023-01-20 23:06:00,,0826.0,5.01,0.00,23.6,22.3,00.0,32.4,25.5,08.0,0000.0,0009.01,0005.36,0004.99
2023-01-20 23:07:00,,0825.9,5.01,0.00,23.6,22.3,00.0,32.4,25.5,08.0,0000.0,0008.82,0005.30,0004.93
2023-01-20 23:08:00,,0826.0,4.98,0.00,23.6,22.2,00.0,32.4,25.5,08.0,0000.0,0008.58,0005.21,0004.85
2023-01-20 23:09:00,,0826.0,5.00,0.00,23.6,22.2,00.0,32.4,25.5,08.0,0000.0,0008.61,0005.16,0004.78
2023-01-20 23:10:00,,0826.0,5.03,0.00,23.6,22.2,00.0,32.4,25.4,08.0,0000.0,0008.59,0005.09,0004.71
2023-01-20 23:11:00,,0826.0,5.01,0.00,23.6,22.2,00.0,32.4,25.4,08.0,0000.0,0008.37,0005.02,0004.65
2023-01-20 23:12:00,,0826.0,4.99,0.00,23.6,22.2,00.0,32.4,25.4,08.1,0000.0,0008.24,0004.95,0004.60
2023-01-20 23:13:00,,0826.0,5.00,0.00,23.6,22.2,00.0,32.4,25.4,08.1,0000.0,0008.30,0004.93,0004.58
2023-01-20 23:14:00,,0826.0,4.99,0.00,23.6,22.2,00.0,32.4,25.4,08.1,0000.0,0008.33,0004.91,0004.55
2023-01-20 23:15:00,,0826.0,4.99,0.00,23.6,22.2,00.0,32.4,25.4,08.1,0000.0,0008.41,0004.91,0004.53
2023-01-20 23:16:00,,0826.0,5.01,0.00,23.6,22.2,00.0,32.4,25.4,08.1,0000.0,0008.03,0004.90,0004.51
2023-01-20 23:17:00,,0826.0,5.00,0.00,23.6,22.2,00.0,32.3,25.4,08.2,0000.0,0007.97,0004.91,0004.50
2023-01-20 23:18:00,,0826.0,5.00,0.00,23.6,22.2,00.0,32.3,25.4,08.2,0000.0,0008.14,0004.91,0004.49
2023-01-20 23:19:00,,0826.0,5.00,0.00,23.6,22.2,00.0,32.3,25.4,08.2,0000.0,0008.33,0004.89,0004.48
2023-01-20 23:20:00,,0826.0,5.00,0.00,23.6,22.2,00.0,32.3,25.4,08.2,0000.0,0008.27,0004.87,0004.49
2023-01-20 23:21:00,,0826.0,5.02,0.00,23.6,22.2,00.0,32.3,25.4,08.2,0000.0,0008.17,0004.86,0004.50
2023-01-20 23:22:00,,0826.0,5.00,0.00,23.5,22.2,00.0,32.3,25.4,08.2,0000.0,0008.26,0004.90,0004.53
2023-01-20 23:23:00,,0826.0,5.01,0.00,23.5,22.2,00.0,32.3,25.4,08.2,0000.0,0008.73,0004.92,0004.57
2023-01-20 23:24:00,,0826.0,4.99,0.00,23.5,22.2,00.0,32.3,25.4,08.3,0000.0,0008.80,0004.92,0004.60
2023-01-20 23:25:00,,0826.0,5.00,0.00,23.5,22.2,00.0,32.3,25.3,08.3,0000.0,0008.76,0004.97,0004.64
2023-01-20 23:26:00,,0826.0,5.00,0.00,23.5,22.2,00.0,32.3,25.4,08.3,0000.0,0008.73,0005.00,0004.68
2023-01-20 23:27:00,,0826.0,5.00,0.00,23.5,22.2,00.0,32.3,25.4,08.3,0000.0,0009.02,0005.03,0004.71
2023-01-20 23:28:00,,0826.0,5.00,0.00,23.5,22.2,00.0,32.3,25.4,08.4,0000.0,0009.72,0005.06,0004.75
2023-01-20 23:29:00,,0826.0,4.99,0.00,23.5,22.2,00.0,32.3,25.3,08.4,0000.0,0009.67,0005.09,0004.78
2023-01-20 23:30:00,,0826.0,5.00,0.00,23.5,22.1,00.0,32.3,25.3,08.3,0000.0,0009.43,0005.12,0004.82
2023-01-20 23:31:00,,0826.0,5.00,0.00,23.5,22.1,00.0,32.3,25.3,08.3,0000.0,0009.51,0005.19,0004.86
2023-01-20 23:32:00,,0826.0,5.00,0.00,23.5,22.1,00.0,32.3,25.3,08.3,0000.0,0010.24,0005.23,0004.89
2023-01-20 23:33:00,,0826.0,5.01,0.00,23.5,22.1,00.0,32.3,25.3,08.3,0000.0,0010.49,0005.26,0004.92
2023-01-20 23:34:00,,0826.0,5.00,0.00,23.5,22.1,00.0,32.3,25.3,08.3,0000.0,0010.16,0005.31,0004.96
2023-01-20 23:35:00,,0826.0,5.00,0.00,23.5,22.1,00.0,32.3,25.3,08.3,0000.0,0010.09,0005.37,0005.01
2023-01-20 23:36:00,,0826.0,5.00,0.00,23.5,22.1,00.0,32.3,25.3,08.3,0000.0,0010.69,0005.40,0005.04
2023-01-20 23:37:00,,0826.1,5.00,0.00,23.5,22.1,00.0,32.3,25.3,08.3,0000.0,0011.09,0005.44,0005.08
2023-01-20 23:38:00,,0826.0,5.00,0.00,23.5,22.1,00.0,32.3,25.3,08.3,0000.0,0011.15,0005.49,0005.11
2023-01-20 23:39:00,,0826.0,5.00,0.00,23.5,22.1,00.0,32.3,25.3,08.3,0000.0,0010.28,0005.50,0005.15
2023-01-20 23:40:00,,0826.0,5.00,0.00,23.5,22.1,00.0,32.3,25.3,08.3,0000.0,0010.28,0005.53,0005.18
2023-01-20 23:41:00,,0826.0,5.02,0.00,23.5,22.1,00.0,32.2,25.3,08.2,0000.0,0010.45,0005.59,0005.22
2023-01-20 23:42:00,,0826.0,5.00,0.00,23.5,22.1,00.0,32.2,25.3,08.3,0000.0,0010.90,0005.63,0005.26
2023-01-20 23:43:00,,0826.0,5.00,0.00,23.4,22.1,00.0,32.2,25.2,08.3,0000.0,0010.84,0005.67,0005.31
2023-01-20 23:44:00,,0826.0,5.00,0.00,23.4,22.1,00.0,32.2,25.2,08.2,0000.0,0010.81,0005.71,0005.35
2023-01-20 23:45:00,,0826.0,4.99,0.00,23.4,22.1,00.0,32.2,25.2,08.2,0000.0,0011.52,0005.77,0005.37
2023-01-20 23:46:00,,0826.0,4.99,0.00,23.4,22.1,00.0,32.2,25.2,08.2,0000.0,0012.62,0005.81,0005.40
2023-01-20 23:47:00,,0826.0,5.00,0.00,23.4,22.0,00.0,32.2,25.2,08.3,0000.0,0012.21,0005.83,0005.42
2023-01-20 23:48:00,,0826.0,4.99,0.00,23.4,22.0,00.0,32.2,25.2,08.3,0000.0,0011.90,0005.83,0005.43
2023-01-20 23:49:00,,0826.0,5.00,0.00,23.4,22.0,00.0,32.2,25.2,08.3,0000.0,0011.82,0005.82,0005.45
2023-01-20 23:50:00,,0826.0,5.01,0.00,23.4,22.0,00.0,32.2,25.2,08.3,0000.0,0011.78,0005.84,0005.45
2023-01-20 23:51:00,,0826.0,4.99,0.00,23.4,22.0,00.0,32.2,25.2,08.4,0000.0,0011.82,0005.84,0005.46
2023-01-20 23:52:00,,0826.0,4.99,0.00,23.4,22.0,00.0,32.2,25.2,08.4,0000.0,0011.76,0005.84,0005.45
2023-01-20 23:53:00,,0826.0,5.00,0.00,23.4,22.0,00.0,32.2,25.2,08.4,0000.0,0012.08,0005.88,0005.46
2023-01-20 23:54:00,,0826.0,5.00,0.00,23.4,22.0,00.0,32.2,25.2,08.4,0000.0,0012.25,0005.92,0005.46
2023-01-20 23:55:00,,0826.0,5.00,0.00,23.4,22.0,00.0,32.2,25.2,08.4,0000.0,0012.06,0005.94,0005.47
2023-01-20 23:56:00,,0826.0,4.99,0.00,23.4,22.0,00.0,32.2,25.2,08.4,0000.0,0011.57,0005.91,0005.47
2023-01-20 23:57:00,,0826.0,5.01,0.00,23.4,22.0,00.0,32.2,25.2,08.4,0000.0,0010.43,0005.88,0005.47
2023-01-20 23:58:00,,0826.0,5.00,0.00,23.4,22.0,00.0,32.2,25.2,08.4,0000.0,0010.58,0005.90,0005.49
2023-01-20 23:59:00,,0826.0,5.00,0.00,23.4,22.0,00.0,32.2,25.2,08.4,0000.0,0010.59,0005.97,0005.53
